JBU2453 KFLL-KMCO

Flight info

Callsign JBU2453
Flight time 0h 30m
Altitude 20000
Route FRSBE2 WAPOM MUNGI1
Aircraft A320/M-SDE3FGHIRWY/LB1

Departure

Time 2026-05-04 01:00
Airport Fort Lauderdale Hollywood International Airport (KFLL)

Arrival

Time 2026-05-04 01:31
Airport Orlando International Airport (KMCO)
Time Latitude Longitude Altitude Speed Heading
2026-05-04 00:35 26.06882 -80.14341 16 ft 0 kts 359°
2026-05-04 00:41 26.06879 -80.14341 16 ft 2 kts 359°
2026-05-04 00:41 26.06862 -80.14341 17 ft 2 kts 359°
2026-05-04 00:42 26.06845 -80.14341 18 ft 2 kts 359°
2026-05-04 00:42 26.06829 -80.14337 17 ft 2 kts 322°
2026-05-04 00:42 26.06821 -80.14327 17 ft 0 kts 275°
2026-05-04 00:49 26.06821 -80.14349 16 ft 9 kts 270°
2026-05-04 00:49 26.06820 -80.14410 16 ft 0 kts 269°
2026-05-04 00:50 26.06820 -80.14428 16 ft 8 kts 269°
2026-05-04 00:50 26.06819 -80.14506 16 ft 11 kts 269°
2026-05-04 00:50 26.06785 -80.14588 15 ft 13 kts 224°
2026-05-04 00:50 26.06766 -80.14694 15 ft 16 kts 271°
2026-05-04 00:51 26.06767 -80.14824 15 ft 18 kts 272°
2026-05-04 00:51 26.06767 -80.14972 15 ft 20 kts 271°
2026-05-04 00:51 26.06769 -80.15138 16 ft 22 kts 270°
2026-05-04 00:51 26.06781 -80.15276 17 ft 16 kts 307°
2026-05-04 00:52 26.06887 -80.15305 16 ft 18 kts
2026-05-04 00:52 26.07017 -80.15303 16 ft 20 kts
2026-05-04 00:52 26.07163 -80.15303 16 ft 22 kts
2026-05-04 00:52 26.07323 -80.15300 16 ft 24 kts
2026-05-04 00:53 26.07461 -80.15305 16 ft 17 kts 334°
2026-05-04 00:53 26.07490 -80.15430 16 ft 19 kts 270°
2026-05-04 00:53 26.07491 -80.15584 16 ft 21 kts 271°
2026-05-04 00:53 26.07493 -80.15755 16 ft 23 kts 268°
2026-05-04 00:54 26.07494 -80.15943 16 ft 25 kts 271°
2026-05-04 00:54 26.07494 -80.16145 16 ft 27 kts 270°
2026-05-04 00:54 26.07497 -80.16362 16 ft 27 kts 270°
2026-05-04 00:54 26.07500 -80.16530 16 ft 16 kts 287°
2026-05-04 00:55 26.07578 -80.16562 17 ft 6 kts
2026-05-04 00:55 26.07585 -80.16562 17 ft 0 kts
2026-05-04 00:57 26.07586 -80.16562 17 ft 0 kts
2026-05-04 00:57 26.07587 -80.16562 17 ft 0 kts
2026-05-04 00:58 26.07613 -80.16562 17 ft 11 kts
2026-05-04 00:59 26.07686 -80.16533 18 ft 12 kts 69°
2026-05-04 00:59 26.07694 -80.16470 19 ft 0 kts 91°
2026-05-04 00:59 26.07692 -80.16418 20 ft 31 kts 91°
2026-05-04 00:59 26.07691 -80.15624 16 ft 119 kts 90°
2026-05-04 01:00 26.07687 -80.14911 20 ft 152 kts 90°
2026-05-04 01:00 26.07678 -80.13613 195 ft 181 kts 88°
2026-05-04 01:00 26.07646 -80.12111 560 ft 207 kts 87°
2026-05-04 01:00 26.07704 -80.10408 982 ft 233 kts 83°
2026-05-04 01:01 26.08237 -80.08633 1471 ft 253 kts 59°
2026-05-04 01:01 26.09416 -80.07165 2276 ft 260 kts 33°
2026-05-04 01:01 26.11075 -80.06310 3146 ft 265 kts 20°
2026-05-04 01:01 26.12804 -80.05571 4087 ft 268 kts 19°
2026-05-04 01:02 26.14548 -80.04809 5047 ft 270 kts 19°
2026-05-04 01:02 26.16308 -80.04052 5980 ft 270 kts 13°
2026-05-04 01:02 26.18143 -80.03858 6900 ft 263 kts 348°
2026-05-04 01:02 26.19820 -80.04473 7803 ft 254 kts 324°
2026-05-04 01:03 26.21122 -80.05735 8712 ft 249 kts 304°
2026-05-04 01:03 26.21987 -80.07476 9117 ft 266 kts 291°
2026-05-04 01:03 26.22760 -80.09385 9880 ft 272 kts 291°
2026-05-04 01:03 26.23558 -80.11342 10379 ft 288 kts 291°
2026-05-04 01:04 26.24423 -80.13447 10603 ft 311 kts 291°
2026-05-04 01:04 26.25372 -80.15703 10894 ft 329 kts 295°
2026-05-04 01:04 26.26591 -80.17907 11486 ft 338 kts 300°
2026-05-04 01:04 26.27863 -80.20124 12189 ft 341 kts 299°
2026-05-04 01:05 26.29143 -80.22365 12930 ft 344 kts 299°
2026-05-04 01:05 26.30432 -80.24630 13657 ft 347 kts 299°
2026-05-04 01:05 26.31729 -80.26912 14310 ft 350 kts 298°
2026-05-04 01:05 26.33036 -80.29214 14947 ft 353 kts 298°
2026-05-04 01:06 26.34351 -80.31536 15579 ft 356 kts 298°
2026-05-04 01:06 26.35677 -80.33877 16202 ft 358 kts 298°
2026-05-04 01:06 26.37013 -80.36235 16818 ft 361 kts 297°
2026-05-04 01:06 26.38358 -80.38612 17444 ft 364 kts 297°
2026-05-04 01:07 26.39716 -80.41012 18071 ft 367 kts 297°
2026-05-04 01:07 26.41083 -80.43429 18652 ft 370 kts 297°
2026-05-04 01:07 26.42459 -80.45866 19224 ft 372 kts 297°
2026-05-04 01:07 26.43842 -80.48320 19779 ft 375 kts 297°
2026-05-04 01:08 26.45232 -80.50784 19985 ft 375 kts 297°
2026-05-04 01:08 26.46751 -80.53206 20038 ft 393 kts 304°
2026-05-04 01:08 26.48769 -80.55397 20047 ft 415 kts 315°
2026-05-04 01:08 26.51255 -80.57132 20043 ft 429 kts 328°
2026-05-04 01:09 26.54103 -80.58278 20046 ft 440 kts 338°
2026-05-04 01:09 26.57052 -80.59198 20059 ft 440 kts 337°
2026-05-04 01:09 26.60000 -80.60122 20044 ft 440 kts 337°
2026-05-04 01:09 26.62947 -80.61054 20046 ft 440 kts 336°
2026-05-04 01:10 26.65889 -80.61991 20048 ft 440 kts 336°
2026-05-04 01:10 26.68833 -80.62930 20048 ft 440 kts 336°
2026-05-04 01:10 26.71778 -80.63871 20049 ft 440 kts 336°
2026-05-04 01:10 26.74718 -80.64810 20048 ft 440 kts 336°
2026-05-04 01:11 26.77659 -80.65749 20047 ft 440 kts 336°
2026-05-04 01:11 26.80602 -80.66685 20047 ft 440 kts 337°
2026-05-04 01:11 26.83532 -80.67614 20040 ft 431 kts 337°
2026-05-04 01:11 26.86363 -80.68496 20034 ft 414 kts 337°
2026-05-04 01:12 26.89129 -80.69336 20066 ft 411 kts 336°
2026-05-04 01:12 26.91889 -80.70162 20066 ft 410 kts 337°
2026-05-04 01:12 26.94647 -80.70986 20067 ft 410 kts 337°
2026-05-04 01:12 26.97412 -80.71812 20069 ft 410 kts 336°
2026-05-04 01:13 27.00177 -80.72784 20077 ft 425 kts 333°
2026-05-04 01:13 27.02999 -80.73898 20081 ft 433 kts 332°
2026-05-04 01:13 27.05836 -80.75070 20086 ft 435 kts 332°
2026-05-04 01:13 27.08643 -80.76246 20088 ft 436 kts 332°
2026-05-04 01:14 27.11486 -80.77435 20091 ft 436 kts 332°
2026-05-04 01:14 27.14336 -80.78615 20094 ft 436 kts 332°
2026-05-04 01:14 27.17191 -80.79784 20116 ft 437 kts 332°
2026-05-04 01:14 27.20048 -80.80941 20122 ft 436 kts 332°
2026-05-04 01:15 27.22904 -80.82093 20123 ft 436 kts 332°
2026-05-04 01:15 27.25759 -80.83247 20123 ft 436 kts 332°
2026-05-04 01:15 27.28608 -80.84413 20123 ft 435 kts 332°
2026-05-04 01:15 27.31436 -80.85614 20123 ft 434 kts 331°
2026-05-04 01:16 27.34097 -80.86780 20123 ft 434 kts 330°
2026-05-04 01:16 27.36903 -80.88029 20122 ft 434 kts 330°
2026-05-04 01:16 27.39704 -80.89285 20120 ft 434 kts 330°
2026-05-04 01:16 27.42503 -80.90536 20083 ft 427 kts 330°
2026-05-04 01:17 27.45208 -80.91729 19996 ft 410 kts 330°
2026-05-04 01:17 27.47838 -80.92885 19692 ft 402 kts 330°
2026-05-04 01:17 27.50427 -80.94025 19280 ft 397 kts 330°
2026-05-04 01:17 27.52988 -80.95154 18835 ft 394 kts 331°
2026-05-04 01:18 27.55524 -80.96277 18394 ft 390 kts 331°
2026-05-04 01:18 27.58039 -80.97392 17867 ft 387 kts 331°
2026-05-04 01:18 27.60534 -80.98496 17333 ft 384 kts 332°
2026-05-04 01:18 27.63009 -80.99588 16798 ft 380 kts 332°
2026-05-04 01:19 27.65466 -81.00676 16258 ft 377 kts 332°
2026-05-04 01:19 27.67897 -81.01757 15723 ft 374 kts 332°
2026-05-04 01:19 27.70306 -81.02830 15200 ft 371 kts 332°
2026-05-04 01:19 27.72695 -81.03892 14685 ft 368 kts 333°
2026-05-04 01:20 27.75070 -81.04944 14173 ft 365 kts 333°
2026-05-04 01:20 27.77425 -81.05988 13651 ft 363 kts 333°
2026-05-04 01:20 27.79765 -81.07028 13094 ft 360 kts 333°
2026-05-04 01:20 27.82082 -81.08061 12566 ft 356 kts 334°
2026-05-04 01:21 27.84343 -81.09068 12415 ft 342 kts 334°
2026-05-04 01:21 27.86516 -81.10035 12294 ft 329 kts 333°
2026-05-04 01:21 27.88608 -81.10963 12168 ft 317 kts 333°
2026-05-04 01:21 27.90621 -81.11855 12051 ft 306 kts 333°
2026-05-04 01:22 27.92548 -81.12709 11860 ft 298 kts 333°
2026-05-04 01:22 27.94482 -81.13569 11318 ft 293 kts 333°
2026-05-04 01:22 27.96341 -81.14400 10728 ft 290 kts 333°
2026-05-04 01:22 27.98203 -81.15234 10169 ft 287 kts 333°
2026-05-04 01:23 28.00049 -81.16063 9567 ft 284 kts 334°
2026-05-04 01:23 28.01881 -81.16885 8926 ft 282 kts 335°
2026-05-04 01:23 28.03703 -81.17701 8309 ft 281 kts 336°
2026-05-04 01:23 28.05520 -81.18513 7710 ft 280 kts 336°
2026-05-04 01:24 28.07324 -81.19317 7121 ft 278 kts 337°
2026-05-04 01:24 28.09121 -81.20120 6538 ft 277 kts 338°
2026-05-04 01:24 28.10916 -81.20925 5916 ft 277 kts 339°
2026-05-04 01:24 28.12704 -81.21727 5348 ft 275 kts 339°
2026-05-04 01:25 28.14476 -81.22521 4776 ft 273 kts 339°
2026-05-04 01:25 28.16239 -81.23308 4224 ft 270 kts 339°
2026-05-04 01:25 28.17964 -81.24081 3796 ft 263 kts 340°
2026-05-04 01:25 28.19642 -81.24833 3384 ft 256 kts 341°
2026-05-04 01:26 28.21277 -81.25566 3006 ft 247 kts 341°
2026-05-04 01:26 28.22827 -81.26264 2777 ft 233 kts 342°
2026-05-04 01:26 28.24287 -81.26923 2565 ft 218 kts 343°
2026-05-04 01:26 28.25657 -81.27541 2346 ft 206 kts 343°
2026-05-04 01:27 28.26956 -81.28034 2155 ft 188 kts 356°
2026-05-04 01:27 28.28208 -81.28096 1914 ft 174 kts
2026-05-04 01:27 28.29387 -81.28108 1696 ft 165 kts
2026-05-04 01:27 28.30477 -81.28120 1469 ft 150 kts
2026-05-04 01:28 28.31506 -81.28129 1251 ft 147 kts
2026-05-04 01:28 28.32529 -81.28139 1081 ft 146 kts
2026-05-04 01:28 28.33551 -81.28143 1052 ft 147 kts
2026-05-04 01:28 28.34565 -81.28126 1063 ft 146 kts
2026-05-04 01:29 28.35576 -81.28165 987 ft 144 kts
2026-05-04 01:29 28.36574 -81.28175 861 ft 143 kts
2026-05-04 01:29 28.37578 -81.28180 755 ft 145 kts
2026-05-04 01:29 28.38585 -81.28164 685 ft 148 kts
2026-05-04 01:30 28.39617 -81.28199 555 ft 149 kts 359°
2026-05-04 01:30 28.40644 -81.28226 376 ft 146 kts
2026-05-04 01:30 28.41664 -81.28234 199 ft 145 kts
2026-05-04 01:30 28.42626 -81.28237 105 ft 120 kts 360°
2026-05-04 01:31 28.43314 -81.28238 101 ft 66 kts 357°
2026-05-04 01:31 28.43502 -81.28296 101 ft 4 kts 327°
2026-05-04 01:31 28.43517 -81.28311 101 ft 11 kts 318°
2026-05-04 01:31 28.43604 -81.28394 104 ft 12 kts
2026-05-04 01:32 28.43694 -81.28371 105 ft 14 kts
2026-05-04 01:32 28.43795 -81.28376 106 ft 15 kts 356°
2026-05-04 01:32 28.43871 -81.28417 108 ft 13 kts 288°
2026-05-04 01:32 28.43876 -81.28525 107 ft 15 kts 270°
2026-05-04 01:33 28.43875 -81.28653 107 ft 18 kts 269°
2026-05-04 01:33 28.43874 -81.28801 107 ft 20 kts 270°
2026-05-04 01:33 28.43873 -81.28968 107 ft 22 kts 270°
2026-05-04 01:33 28.43870 -81.29144 101 ft 22 kts 268°
2026-05-04 01:34 28.43832 -81.29254 101 ft 14 kts 203°
2026-05-04 01:34 28.43729 -81.29261 102 ft 15 kts 180°
2026-05-04 01:34 28.43619 -81.29261 103 ft 16 kts 181°
2026-05-04 01:34 28.43555 -81.29321 105 ft 13 kts 260°
2026-05-04 01:35 28.43552 -81.29423 107 ft 14 kts 265°
2026-05-04 01:35 28.43551 -81.29541 105 ft 17 kts 270°
2026-05-04 01:35 28.43551 -81.29689 103 ft 19 kts 270°
2026-05-04 01:35 28.43526 -81.29797 103 ft 12 kts 210°
2026-05-04 01:36 28.43434 -81.29803 104 ft 15 kts 178°
2026-05-04 01:36 28.43377 -81.29802 103 ft 0 kts 180°
2026-05-04 01:38 28.43376 -81.29802 103 ft 1 kts 180°
2026-05-04 01:39 28.43361 -81.29802 102 ft 3 kts 180°
2026-05-04 01:39 28.43329 -81.29802 103 ft 6 kts 180°
2026-05-04 01:39 28.43279 -81.29803 103 ft 8 kts 180°
2026-05-04 01:39 28.43202 -81.29804 103 ft 14 kts 180°
2026-05-04 01:40 28.43098 -81.29802 103 ft 16 kts 179°
2026-05-04 01:40 28.42980 -81.29804 103 ft 18 kts 182°
2026-05-04 01:40 28.42850 -81.29801 103 ft 19 kts 179°
2026-05-04 01:40 28.42708 -81.29797 103 ft 22 kts 179°
2026-05-04 01:41 28.42549 -81.29792 103 ft 24 kts 177°
2026-05-04 01:41 28.42374 -81.29790 102 ft 25 kts 180°
2026-05-04 01:41 28.42191 -81.29787 102 ft 27 kts 180°
2026-05-04 01:41 28.42097 -81.29786 102 ft 11 kts 178°
2026-05-04 01:42 28.42015 -81.29783 102 ft 13 kts 178°